Location: Aubervilles
(48.9167°N, 2.3833°E)
Time: 09:11:58
(UTC+00:00)

Cosmos 407 Rocket - Pass Details

Date: 03 February 2023
Orbit: 742 x 786 km, 74.0° (Epoch: 28 March)

Event Time Altitude Azimuth Distance (km) Brightness Sun altitude
Rises 17:13:26 0° 190° (S) 3,189 7.2 -4.3°
Reaches altitude 10° 17:15:48 10° 187° (S) 2,264 6.3 -4.7°
Maximum altitude 17:20:51 61° 108° (ESE) 845 3.5 -5.4°
Drops below altitude 10° 17:25:53 10° 29° (NNE) 2,266 5.5 -6.2°
Sets 17:28:16 0° 26° (NNE) 3,193 6.3 -6.6°
